Weather History for KRKD - August, 2014

Change the Weather History Date:

Friday, August 8, 2014

  Actual Average (KAUG) Record (KAUG)
Temperature  
Mean Temperature 66 °F 70 °F  
Max Temperature 78 °F 79 °F - ()
Min Temperature 55 °F 60 °F - ()
Degree Days  
Heating Degree Days 0 0  
Month to date heating degree days 0  
Since 1 June heating degree days 110  
Since 1 July heating degree days 16  
Cooling Degree Days 2 5  
Month to date cooling degree days 40  
Year to date cooling degree days 270  
Since 1 June cooling degree days 261  
Growing Degree Days 16 (Base 50)    
Moisture  
Dew Point 59 °F    
Average Humidity 81    
Maximum Humidity 100    
Minimum Humidity 47    
Precipitation  
Precipitation 0.13 in 0.11 in - ()
Month to date precipitation 0.92  
Year to date precipitation 23.79  
Sea Level Pressure  
Sea Level Pressure 29.91 in    
Wind  
Wind Speed 5 mph (WNW)    
Max Wind Speed 10 mph    
Max Gust Speed -    
Visibility 10 miles    
Events Thunderstorm    
T = Trace of Precipitation, MM = Missing Value Source: NWS Daily Summary

Daily Weather History Graph

Daily Weather History Graph

Search for Another Location

Airport or City:

Trip Planner

Search our weather history database for the weather conditions in past years. The results will help you decide how hot, cold, wet, or windy it might be!

Date:

Astronomy

Aug. 08, 2014 Rise Set
Actual Time 5:32 AM EDT 7:51 PM EDT
Civil Twilight 4:59 AM EDT 8:23 PM EDT
Nautical Twilight 4:20 AM EDT 9:02 PM EDT
Astronomical Twilight 3:35 AM EDT 9:47 PM EDT
Moon 6:00 PM EDT (8/8) 2:59 AM EDT (8/8)
Length of Visible Light 15h 23m
Length of Day
14h 19m
Waxing Gibbous, 93% of the Moon is Illuminated
Aug 8
Waxing Gibbous
Aug 10
Full
Aug 17
Last Quarter
Aug 25
New
Sep 2
First Quarter

Hourly Weather History & Observations

Time (EDT) Temp. Dew Point Humidity Pressure Visibility Wind Dir Wind Speed Gust Speed Precip Events Conditions
12:15 AM 55.4 °F 55.4 °F 100% 29.88 in 10.0 mi West 4.6 mph - N/A   Scattered Clouds
12:35 AM 55.4 °F 55.4 °F 100% 29.88 in 10.0 mi West 3.5 mph - N/A   Mostly Cloudy
12:55 AM 55.4 °F 55.4 °F 100% 29.88 in 10.0 mi WNW 3.5 mph - N/A   Mostly Cloudy
1:15 AM 57.2 °F 55.4 °F 94% 29.87 in 10.0 mi West 3.5 mph - N/A   Overcast
1:35 AM 57.2 °F 55.4 °F 94% 29.87 in 10.0 mi WNW 5.8 mph - N/A   Mostly Cloudy
1:55 AM 57.2 °F 55.4 °F 94% 29.87 in 10.0 mi SW 3.5 mph - N/A   Overcast
2:15 AM 57.2 °F 55.4 °F 94% 29.87 in 10.0 mi WNW 3.5 mph - N/A   Overcast
2:35 AM 59.0 °F 55.4 °F 88% 29.86 in 10.0 mi West 3.5 mph - N/A   Overcast
2:55 AM 59.0 °F 57.2 °F 94% 29.87 in 10.0 mi WNW 6.9 mph - N/A   Mostly Cloudy
3:15 AM 59.0 °F 57.2 °F 94% 29.87 in 10.0 mi WNW 5.8 mph - N/A   Mostly Cloudy
3:35 AM 59.0 °F 57.2 °F 94% 29.87 in 10.0 mi West 4.6 mph - N/A   Overcast
3:55 AM 59.0 °F 57.2 °F 94% 29.87 in 10.0 mi West 5.8 mph - N/A   Overcast
4:15 AM 59.0 °F 57.2 °F 94% 29.87 in 10.0 mi WNW 5.8 mph - N/A   Overcast
4:35 AM 59.0 °F 57.2 °F 94% 29.87 in 10.0 mi WNW 5.8 mph - N/A   Overcast
4:55 AM 60.8 °F 57.2 °F 88% 29.88 in 10.0 mi WNW 4.6 mph - N/A   Overcast
5:15 AM 59.0 °F 57.2 °F 94% 29.89 in 10.0 mi WNW 5.8 mph - N/A   Mostly Cloudy
5:35 AM 59.0 °F 55.4 °F 88% 29.90 in 10.0 mi WNW 4.6 mph - N/A   Scattered Clouds
5:55 AM 59.0 °F 55.4 °F 88% 29.91 in 10.0 mi West 3.5 mph - N/A   Clear
6:15 AM 57.2 °F 55.4 °F 94% 29.91 in 10.0 mi WNW 4.6 mph - N/A   Clear
6:35 AM 57.2 °F 55.4 °F 94% 29.91 in 10.0 mi West 4.6 mph - N/A   Clear
6:55 AM 59.0 °F 57.2 °F 94% 29.91 in 10.0 mi West 4.6 mph - N/A   Clear
7:15 AM 60.8 °F 57.2 °F 88% 29.91 in 10.0 mi West 3.5 mph - N/A   Clear
7:35 AM 62.6 °F 57.2 °F 82% 29.92 in 10.0 mi West 5.8 mph - N/A   Clear
7:55 AM 64.4 °F 59.0 °F 83% 29.92 in 10.0 mi Calm Calm - N/A   Scattered Clouds
8:15 AM 66.2 °F 60.8 °F 83% 29.92 in 10.0 mi NNW 6.9 mph - N/A   Scattered Clouds
8:35 AM 68.0 °F 59.0 °F 73% 29.93 in 10.0 mi WNW 3.5 mph - N/A   Clear
8:55 AM 69.8 °F 59.0 °F 68% 29.92 in 10.0 mi NNW 3.5 mph - N/A   Clear
9:15 AM 69.8 °F 60.8 °F 73% 29.92 in 10.0 mi NW 3.5 mph - N/A   Clear
9:35 AM 71.6 °F 60.8 °F 69% 29.92 in 10.0 mi NNW 4.6 mph - N/A   Clear
9:55 AM 71.6 °F 60.8 °F 69% 29.92 in 10.0 mi WNW 8.1 mph - N/A   Clear
10:15 AM 73.4 °F 60.8 °F 65% 29.92 in 10.0 mi WNW 5.8 mph - N/A   Clear
10:35 AM 73.4 °F 59.0 °F 61% 29.92 in 10.0 mi NW 3.5 mph - N/A   Clear
10:55 AM 73.4 °F 59.0 °F 61% 29.92 in 10.0 mi NW 5.8 mph - N/A   Clear
11:15 AM 75.2 °F 60.8 °F 61% 29.92 in 10.0 mi WNW 9.2 mph - N/A   Clear
11:35 AM 75.2 °F 60.8 °F 61% 29.91 in 10.0 mi West 9.2 mph - N/A   Clear
11:55 AM 75.2 °F 60.8 °F 61% 29.91 in 10.0 mi WNW 6.9 mph - N/A   Clear
12:15 PM 75.2 °F 60.8 °F 61% 29.91 in 10.0 mi Calm Calm - N/A   Partly Cloudy
12:35 PM 77.0 °F 59.0 °F 54% 29.91 in 10.0 mi WNW 6.9 mph - N/A   Scattered Clouds
12:55 PM 77.0 °F 60.8 °F 57% 29.90 in 10.0 mi WNW 6.9 mph - N/A   Mostly Cloudy
1:15 PM 77.0 °F 60.8 °F 57% 29.90 in 10.0 mi West 6.9 mph - N/A   Scattered Clouds
1:35 PM 77.0 °F 59.0 °F 54% 29.90 in 10.0 mi WNW 4.6 mph - N/A   Partly Cloudy
1:55 PM 77.0 °F 60.8 °F 57% 29.89 in 10.0 mi WNW 4.6 mph - N/A   Mostly Cloudy
2:15 PM 78.8 °F 57.2 °F 47% 29.89 in 10.0 mi NW 8.1 mph - N/A   Scattered Clouds
2:35 PM 77.0 °F 59.0 °F 54% 29.89 in 10.0 mi WNW 5.8 mph - N/A   Partly Cloudy
2:55 PM 78.8 °F 59.0 °F 51% 29.88 in 10.0 mi WNW 6.9 mph - N/A   Mostly Cloudy
3:15 PM 75.2 °F 62.6 °F 65% 29.88 in 10.0 mi ESE 8.1 mph - N/A   Mostly Cloudy
3:35 PM 73.4 °F 60.8 °F 65% 29.89 in 10.0 mi East 5.8 mph - N/A   Overcast
3:55 PM 73.4 °F 60.8 °F 65% 29.90 in 10.0 mi ENE 5.8 mph - N/A Thunderstorm Mostly Cloudy
4:35 PM 69.8 °F 62.6 °F 78% 29.90 in 10.0 mi ESE 4.6 mph - 0.01 in   Mostly Cloudy
4:55 PM 69.8 °F 62.6 °F 78% 29.90 in 10.0 mi SSE 4.6 mph - 0.01 in Thunderstorm Scattered Clouds
5:15 PM 69.8 °F 60.8 °F 73% 29.91 in 10.0 mi South 8.1 mph - N/A Thunderstorm Scattered Clouds
5:35 PM 68.0 °F 62.6 °F 83% 29.94 in 10.0 mi Calm Calm - N/A   Mostly Cloudy
5:55 PM 66.2 °F 60.8 °F 83% 29.95 in 5.0 mi NE 4.6 mph - 0.10 in   Overcast
6:15 PM 64.4 °F 60.8 °F 88% 29.95 in 10.0 mi NE 4.6 mph - 0.01 in   Scattered Clouds
6:35 PM 64.4 °F 60.8 °F 88% 29.95 in 10.0 mi SSW 4.6 mph - 0.01 in Thunderstorm Scattered Clouds
6:55 PM 64.4 °F 62.6 °F 94% 29.94 in 10.0 mi SSW 3.5 mph - 0.01 in   Clear
7:15 PM 62.6 °F 60.8 °F 94% 29.94 in 10.0 mi Calm Calm - N/A   Clear
7:35 PM 64.4 °F 60.8 °F 88% 29.95 in 10.0 mi WSW 3.5 mph - N/A   Clear
7:55 PM 62.6 °F 60.8 °F 94% 29.95 in 10.0 mi WNW 4.6 mph - N/A   Mostly Cloudy
8:15 PM 62.6 °F 60.8 °F 94% 29.95 in 10.0 mi NW 3.5 mph - N/A   Mostly Cloudy
8:35 PM 62.6 °F 60.8 °F 94% 29.96 in 10.0 mi WNW 4.6 mph - N/A   Mostly Cloudy
8:55 PM 62.6 °F 60.8 °F 94% 29.96 in 10.0 mi West 10.4 mph - N/A   Overcast
9:15 PM 62.6 °F 59.0 °F 88% 29.96 in 10.0 mi West 9.2 mph - 0.01 in   Overcast
9:35 PM 62.6 °F 59.0 °F 88% 29.97 in 10.0 mi West 8.1 mph - 0.01 in   Scattered Clouds
10:15 PM 60.8 °F 57.2 °F 88% 29.96 in 10.0 mi West 8.1 mph - N/A   Clear
10:35 PM 60.8 °F 57.2 °F 88% 29.96 in 10.0 mi WNW 8.1 mph - N/A   Clear
10:55 PM 60.8 °F 59.0 °F 94% 29.96 in 10.0 mi WNW 6.9 mph - N/A   Clear
11:15 PM 60.8 °F 59.0 °F 94% 29.96 in 10.0 mi West 9.2 mph - N/A   Clear
11:35 PM 60.8 °F 59.0 °F 94% 29.96 in 10.0 mi WNW 8.1 mph - N/A   Clear
11:55 PM 60.8 °F 59.0 °F 94% 29.96 in 10.0 mi WNW 8.1 mph - N/A   Clear